Terug naar catalogus

CZ-6A DEB

ActiefPO
NORAD 54967·DEBRIS·🇨🇳 China

Gelanceerd Nov 11, 2022 vanaf Taiyuan Satellite Launch Center

Loading…

Volgende Passages (komende 24 uur)

TLE

VersSource: Space-Track

Epoch: Sep 13, 2026, 09:42 UTC

1 54967U 22151TG  26256.40473639  .00000113  00000-0  19278-3 0  9994
2 54967  99.0441 119.8266 0424023 218.5179 138.4976 13.31119266186232

Volg CZ-6A DEB in realtime met AllMySat

Download on the App Store